| time (UTC) | temp C | wind direction | speed KPH | gust KPH | rain 1hr cm | rain 24hr cm | rain mn cm | humidity % | barometer mb |
| 20260506002108 | 28 | 266 | 3.2 | 4.8 | 0.00 | 0.00 | 0.00 | 70 | 1005.9 |
| 20260506001605 | 29 | 300 | 0.0 | 6.4 | 0.00 | 0.00 | 0.00 | 69 | 1005.9 |
| 20260506001102 | 28 | 284 | 1.6 | 4.8 | 0.00 | 0.00 | 0.00 | 69 | 1005.8 |
| 20260506000559 | 28 | 258 | 1.6 | 3.2 | 0.00 | 0.00 | 0.00 | 69 | 1005.7 |
| 20260506000056 | 28 | 185 | 3.2 | 16.1 | 0.00 | 0.00 | 0.00 | 69 | 1005.6 |
| 20260505235554 | 28 | 174 | 1.6 | 16.1 | 0.00 | 0.00 | 0.00 | 69 | 1005.1 |
| 20260505235051 | 28 | 207 | 8.0 | 9.7 | 0.00 | 0.00 | 0.00 | 69 | 1005.4 |
| 20260505234548 | 28 | 201 | 6.4 | 14.5 | 0.00 | 0.00 | 0.00 | 69 | 1005.3 |
| 20260505234045 | 29 | 202 | 16.1 | 24.1 | 0.00 | 0.00 | 0.00 | 69 | 1005.2 |
| 20260505233542 | 29 | 163 | 3.2 | 8.0 | 0.00 | 0.00 | 0.00 | 69 | 1005.2 |
| 20260505233040 | 29 | 210 | 8.0 | 9.7 | 0.00 | 0.00 | 0.00 | 69 | 1005.3 |
| 20260505232537 | 29 | 162 | 1.6 | 9.7 | 0.00 | 0.00 | 0.00 | 68 | 1005.2 |
| 20260505232035 | 30 | 198 | 3.2 | 6.4 | 0.00 | 0.00 | 0.00 | 68 | 1005.0 |
| 20260505231531 | 30 | 151 | 3.2 | 20.9 | 0.00 | 0.00 | 0.00 | 68 | 1005.0 |
| 20260505231030 | 30 | 161 | 4.8 | 14.5 | 0.00 | 0.00 | 0.00 | 68 | 1005.1 |
| 20260505230527 | 30 | 160 | 4.8 | 19.3 | 0.00 | 0.00 | 0.00 | 68 | 1004.9 |
| 20260505230024 | 30 | 211 | 12.9 | 17.7 | 0.00 | 0.00 | 0.00 | 67 | 1005.1 |
| 20260505225520 | 30 | 102 | 1.6 | 14.5 | 0.00 | 0.00 | 0.00 | 67 | 1005.0 |
| 20260505225016 | 30 | 192 | 4.8 | 14.5 | 0.00 | 0.00 | 0.00 | 67 | 1004.9 |
| 20260505224514 | 31 | 181 | 8.0 | 9.7 | 0.00 | 0.00 | 0.00 | 64 | 1004.7 |
| 20260505224011 | 31 | 209 | 14.5 | 20.9 | 0.00 | 0.00 | 0.00 | 59 | 1004.7 |
| 20260505223508 | 31 | 182 | 8.0 | 19.3 | 0.00 | 0.00 | 0.00 | 58 | 1004.7 |
| 20260505223004 | 31 | 204 | 11.3 | 24.1 | 0.00 | 0.00 | 0.00 | 59 | 1004.7 |
| 20260505222500 | 31 | 212 | 11.3 | 20.9 | 0.00 | 0.00 | 0.00 | 58 | 1004.6 |
| 20260505221956 | 31 | 200 | 1.6 | 8.0 | 0.00 | 0.00 | 0.00 | 59 | 1004.7 |
| 20260505221453 | 31 | 142 | 1.6 | 11.3 | 0.00 | 0.00 | 0.00 | 60 | 1004.5 |
| 20260505220950 | 31 | 159 | 3.2 | 9.7 | 0.00 | 0.00 | 0.00 | 59 | 1004.6 |
| 20260505220447 | 31 | 206 | 8.0 | 9.7 | 0.00 | 0.00 | 0.00 | 59 | 1004.5 |
| 20260505215945 | 31 | 215 | 11.3 | 12.9 | 0.00 | 0.00 | 0.00 | 58 | 1004.4 |
| 20260505215443 | 31 | 204 | 11.3 | 22.5 | 0.00 | 0.00 | 0.00 | 59 | 1004.4 |
| 20260505214940 | 31 | 188 | 6.4 | 17.7 | 0.00 | 0.00 | 0.00 | 58 | 1004.5 |
| 20260505214438 | 32 | 218 | 8.0 | 9.7 | 0.00 | 0.00 | 0.00 | 56 | 1004.7 |
| 20260505213935 | 32 | 209 | 8.0 | 9.7 | 0.00 | 0.00 | 0.00 | 56 | 1004.7 |
| 20260505213433 | 32 | 216 | 8.0 | 16.1 | 0.00 | 0.00 | 0.00 | 55 | 1004.6 |
| 20260505212929 | 32 | 190 | 0.0 | 11.3 | 0.00 | 0.00 | 0.00 | 57 | 1004.7 |
| 20260505212426 | 32 | 199 | 11.3 | 17.7 | 0.00 | 0.00 | 0.00 | 56 | 1004.7 |
| 20260505211922 | 32 | 223 | 6.4 | 9.7 | 0.00 | 0.00 | 0.00 | 55 | 1004.9 |
| 20260505211420 | 32 | 207 | 6.4 | 20.9 | 0.00 | 0.00 | 0.00 | 53 | 1004.8 |
| 20260505210916 | 32 | 197 | 3.2 | 8.0 | 0.00 | 0.00 | 0.00 | 54 | 1004.8 |
| 20260505210414 | 32 | 200 | 9.7 | 22.5 | 0.00 | 0.00 | 0.00 | 56 | 1005.1 |
| 20260505205910 | 33 | 212 | 3.2 | 8.0 | 0.00 | 0.00 | 0.00 | 53 | 1005.4 |
| 20260505205409 | 32 | 271 | 1.6 | 12.9 | 0.00 | 0.00 | 0.00 | 53 | 1005.2 |
| 20260505204905 | 32 | 203 | 6.4 | 11.3 | 0.00 | 0.00 | 0.00 | 54 | 1005.3 |
| 20260505204403 | 32 | 226 | 4.8 | 16.1 | 0.00 | 0.00 | 0.00 | 55 | 1005.2 |
| 20260505203900 | 30 | 212 | 11.3 | 17.7 | 0.00 | 0.00 | 0.00 | 58 | 1005.3 |
| 20260505203356 | 31 | 204 | 14.5 | 22.5 | 0.00 | 0.00 | 0.00 | 58 | 1005.4 |
| 20260505202852 | 31 | 202 | 16.1 | 27.4 | 0.00 | 0.00 | 0.00 | 57 | 1005.5 |
| 20260505202349 | 31 | 224 | 6.4 | 11.3 | 0.00 | 0.00 | 0.00 | 57 | 1005.4 |
| 20260505201846 | 31 | 197 | 11.3 | 24.1 | 0.00 | 0.00 | 0.00 | 59 | 1005.5 |
| 20260505201343 | 32 | 276 | 3.2 | 14.5 | 0.00 | 0.00 | 0.00 | 56 | 1005.4 |
| 20260505200841 | 31 | 219 | 6.4 | 22.5 | 0.00 | 0.00 | 0.00 | 59 | 1005.6 |
| 20260505200338 | 31 | 196 | 16.1 | 25.7 | 0.00 | 0.00 | 0.00 | 59 | 1005.5 |
| 20260505195833 | 31 | 219 | 3.2 | 17.7 | 0.00 | 0.00 | 0.00 | 61 | 1005.8 |
| 20260505195331 | 30 | 206 | 17.7 | 29.0 | 0.00 | 0.00 | 0.00 | 61 | 1005.7 |
| 20260505194828 | 30 | 209 | 16.1 | 24.1 | 0.00 | 0.00 | 0.00 | 59 | 1005.6 |
| 20260505194325 | 30 | 214 | 16.1 | 30.6 | 0.00 | 0.00 | 0.00 | 60 | 1005.8 |
| 20260505193820 | 30 | 214 | 12.9 | 24.1 | 0.00 | 0.00 | 0.00 | 60 | 1005.6 |
| 20260505193318 | 30 | 202 | 8.0 | 20.9 | 0.00 | 0.00 | 0.00 | 60 | 1005.7 |
| 20260505192816 | 30 | 224 | 8.0 | 25.7 | 0.00 | 0.00 | 0.00 | 63 | 1005.8 |
| 20260505192314 | 30 | 214 | 8.0 | 16.1 | 0.00 | 0.00 | 0.00 | 63 | 1005.7 |
| 20260505191812 | 30 | 211 | 16.1 | 20.9 | 0.00 | 0.00 | 0.00 | 64 | 1005.7 |
| 20260505191309 | 29 | 201 | 20.9 | 22.5 | 0.00 | 0.00 | 0.00 | 64 | 1005.8 |
| 20260505190806 | 29 | 208 | 11.3 | 20.9 | 0.00 | 0.00 | 0.00 | 66 | 1006.0 |
| 20260505190301 | 29 | 207 | 29.0 | 33.8 | 0.00 | 0.00 | 0.00 | 65 | 1006.0 |
| 20260505185757 | 29 | 204 | 11.3 | 19.3 | 0.00 | 0.00 | 0.00 | 66 | 1006.0 |
| 20260505185254 | 28 | 206 | 12.9 | 24.1 | 0.00 | 0.00 | 0.00 | 66 | 1006.3 |
| 20260505184750 | 29 | 210 | 27.4 | 27.4 | 0.00 | 0.00 | 0.00 | 65 | 1006.2 |
| 20260505184248 | 28 | 196 | 8.0 | 19.3 | 0.00 | 0.00 | 0.00 | 67 | 1006.2 |
| 20260505183744 | 29 | 209 | 17.7 | 20.9 | 0.00 | 0.00 | 0.00 | 66 | 1006.3 |
| 20260505183242 | 28 | 210 | 11.3 | 20.9 | 0.00 | 0.00 | 0.00 | 67 | 1006.2 |
| 20260505182738 | 28 | 212 | 20.9 | 24.1 | 0.00 | 0.00 | 0.00 | 66 | 1006.3 |
| 20260505182235 | 28 | 213 | 20.9 | 22.5 | 0.00 | 0.00 | 0.00 | 67 | 1006.4 |
| 20260505181731 | 28 | 205 | 6.4 | 32.2 | 0.00 | 0.00 | 0.00 | 69 | 1006.5 |
| 20260505181229 | 28 | 180 | 3.2 | 24.1 | 0.00 | 0.00 | 0.00 | 69 | 1006.2 |
| 20260505180725 | 27 | 211 | 19.3 | 30.6 | 0.00 | 0.00 | 0.00 | 69 | 1006.2 |
| 20260505180222 | 28 | 213 | 17.7 | 29.0 | 0.00 | 0.00 | 0.00 | 68 | 1006.2 |
| 20260505175718 | 28 | 190 | 4.8 | 22.5 | 0.00 | 0.00 | 0.00 | 69 | 1006.4 |
| 20260505175215 | 28 | 221 | 11.3 | 20.9 | 0.00 | 0.00 | 0.00 | 68 | 1006.5 |
| 20260505174711 | 27 | 218 | 17.7 | 24.1 | 0.00 | 0.00 | 0.00 | 68 | 1006.4 |
| 20260505174209 | 27 | 175 | 4.8 | 24.1 | 0.00 | 0.00 | 0.00 | 70 | 1006.4 |
| 20260505173704 | 27 | 183 | 14.5 | 27.4 | 0.00 | 0.00 | 0.00 | 70 | 1006.4 |
| 20260505173201 | 27 | 210 | 12.9 | 25.7 | 0.00 | 0.00 | 0.00 | 69 | 1006.5 |
| 20260505172658 | 27 | 198 | 11.3 | 29.0 | 0.00 | 0.00 | 0.00 | 70 | 1006.3 |
| 20260505172155 | 27 | 207 | 8.0 | 22.5 | 0.00 | 0.00 | 0.00 | 70 | 1006.4 |
| 20260505171655 | 27 | 220 | 20.9 | 24.1 | 0.00 | 0.00 | 0.00 | 70 | 1006.4 |
| 20260505171152 | 27 | 198 | 9.7 | 25.7 | 0.00 | 0.00 | 0.00 | 71 | 1006.3 |
| 20260505170649 | 27 | 149 | 8.0 | 19.3 | 0.00 | 0.00 | 0.00 | 71 | 1006.3 |
| 20260505170146 | 26 | 202 | 14.5 | 24.1 | 0.00 | 0.00 | 0.00 | 72 | 1006.4 |
| 20260505165646 | 26 | 207 | 19.3 | 24.1 | 0.00 | 0.00 | 0.00 | 71 | 1006.3 |
| 20260505165143 | 26 | 202 | 20.9 | 27.4 | 0.00 | 0.00 | 0.00 | 71 | 1006.0 |
| 20260505164638 | 26 | 192 | 19.3 | 33.8 | 0.00 | 0.00 | 0.00 | 71 | 1006.2 |
| 20260505164136 | 26 | 209 | 19.3 | 27.4 | 0.00 | 0.00 | 0.00 | 72 | 1006.1 |
| 20260505163634 | 26 | 206 | 22.5 | 25.7 | 0.00 | 0.00 | 0.00 | 73 | 1005.9 |
| 20260505163131 | 26 | 214 | 19.3 | 30.6 | 0.00 | 0.00 | 0.00 | 73 | 1006.0 |
| 20260505162628 | 26 | 204 | 14.5 | 35.4 | 0.00 | 0.00 | 0.00 | 73 | 1006.0 |
| 20260505162126 | 26 | 202 | 27.4 | 41.8 | 0.00 | 0.00 | 0.00 | 73 | 1006.0 |
| 20260505161623 | 26 | 209 | 25.7 | 37.0 | 0.00 | 0.00 | 0.00 | 73 | 1006.1 |
| 20260505161120 | 26 | 197 | 12.9 | 20.9 | 0.00 | 0.00 | 0.00 | 74 | 1006.2 |
| 20260505160618 | 26 | 212 | 14.5 | 27.4 | 0.00 | 0.00 | 0.00 | 74 | 1006.2 |
| 20260505160115 | 25 | 201 | 16.1 | 30.6 | 0.00 | 0.00 | 0.00 | 75 | 1006.4 |
| 20260505153055 | 25 | 210 | 14.5 | 29.0 | 0.00 | 0.00 | 0.00 | 78 | 1006.4 |
| 20260505152551 | 25 | 194 | 8.0 | 16.1 | 0.00 | 0.00 | 0.00 | 78 | 1006.4 |
| 20260505152048 | 25 | 204 | 17.7 | 20.9 | 0.00 | 0.00 | 0.00 | 78 | 1006.4 |
| 20260505151548 | 25 | 163 | 6.4 | 14.5 | 0.00 | 0.00 | 0.00 | 78 | 1006.2 |
| 20260505151046 | 25 | 196 | 12.9 | 27.4 | 0.00 | 0.00 | 0.00 | 78 | 1006.2 |
| 20260505150542 | 25 | 212 | 12.9 | 25.7 | 0.00 | 0.00 | 0.00 | 78 | 1006.3 |
| 20260505140507 | 23 | 215 | 17.7 | 19.3 | 0.00 | 0.00 | 0.00 | 82 | 1005.9 |
| 20260505124920 | 21 | 180 | 4.8 | 11.3 | 0.00 | 0.00 | 0.00 | 88 | 1005.8 |
| 20260505124417 | 21 | 204 | 8.0 | 19.3 | 0.00 | 0.00 | 0.00 | 89 | 1005.7 |
| 20260505123913 | 21 | 196 | 12.9 | 17.7 | 0.00 | 0.00 | 0.00 | 89 | 1005.5 |
| 20260505123410 | 21 | 199 | 14.5 | 19.3 | 0.00 | 0.00 | 0.00 | 89 | 1005.5 |
| 20260505122906 | 21 | 216 | 6.4 | 14.5 | 0.00 | 0.00 | 0.00 | 89 | 1005.3 |
| 20260505122403 | 21 | 197 | 8.0 | 24.1 | 0.00 | 0.00 | 0.00 | 89 | 1005.4 |
| 20260505121900 | 21 | 184 | 9.7 | 16.1 | 0.00 | 0.00 | 0.00 | 90 | 1005.2 |
| 20260505121357 | 21 | 178 | 9.7 | 14.5 | 0.00 | 0.00 | 0.00 | 90 | 1005.3 |
| 20260505120853 | 21 | 158 | 4.8 | 9.7 | 0.00 | 0.00 | 0.00 | 90 | 1005.1 |
| 20260505120349 | 20 | 188 | 6.4 | 11.3 | 0.00 | 0.00 | 0.00 | 90 | 1005.1 |
| 20260505115848 | 20 | 140 | 6.4 | 17.7 | 0.00 | 0.00 | 0.00 | 90 | 1005.1 |
| 20260505115345 | 20 | 176 | 6.4 | 19.3 | 0.00 | 0.00 | 0.00 | 90 | 1005.2 |
| 20260505114843 | 20 | 211 | 6.4 | 11.3 | 0.00 | 0.00 | 0.00 | 90 | 1005.2 |
| 20260505114339 | 20 | 203 | 11.3 | 17.7 | 0.00 | 0.00 | 0.00 | 90 | 1005.2 |
| 20260505113836 | 20 | 204 | 4.8 | 20.9 | 0.00 | 0.00 | 0.00 | 90 | 1005.1 |
| 20260505113332 | 20 | 185 | 6.4 | 22.5 | 0.00 | 0.00 | 0.00 | 90 | 1005.1 |
| 20260505112828 | 20 | 198 | 16.1 | 24.1 | 0.00 | 0.00 | 0.00 | 90 | 1005.1 |
| 20260505112326 | 20 | 176 | 14.5 | 20.9 | 0.00 | 0.00 | 0.00 | 90 | 1005.3 |
| 20260505111821 | 20 | 184 | 9.7 | 17.7 | 0.00 | 0.00 | 0.00 | 90 | 1005.3 |
| 20260505111317 | 20 | 201 | 8.0 | 17.7 | 0.00 | 0.00 | 0.00 | 90 | 1005.2 |
| 20260505110813 | 20 | 187 | 14.5 | 14.5 | 0.00 | 0.00 | 0.00 | 89 | 1004.8 |
| 20260505110311 | 21 | 213 | 19.3 | 19.3 | 0.00 | 0.00 | 0.00 | 89 | 1004.8 |
| 20260505101745 | 21 | 186 | 8.0 | 24.1 | 0.00 | 0.00 | 0.00 | 87 | 1004.9 |
| 20260505101241 | 21 | 197 | 11.3 | 22.5 | 0.00 | 0.00 | 0.00 | 87 | 1005.1 |
| 20260505100737 | 21 | 179 | 9.7 | 20.9 | 0.00 | 0.00 | 0.00 | 87 | 1005.1 |
| 20260505100234 | 21 | 182 | 16.1 | 22.5 | 0.00 | 0.00 | 0.00 | 86 | 1004.9 |
| 20260505095729 | 21 | 199 | 17.7 | 30.6 | 0.00 | 0.00 | 0.00 | 86 | 1004.9 |
| 20260505095228 | 21 | 195 | 11.3 | 33.8 | 0.00 | 0.00 | 0.00 | 86 | 1005.1 |
| 20260505094723 | 21 | 188 | 9.7 | 20.9 | 0.00 | 0.00 | 0.00 | 85 | 1005.1 |
| 20260505094220 | 22 | 198 | 19.3 | 32.2 | 0.00 | 0.00 | 0.00 | 85 | 1005.0 |
| 20260505093716 | 21 | 179 | 16.1 | 25.7 | 0.00 | 0.00 | 0.00 | 85 | 1005.1 |
| 20260505093214 | 22 | 166 | 12.9 | 25.7 | 0.00 | 0.00 | 0.00 | 85 | 1005.0 |
| 20260505092710 | 21 | 180 | 14.5 | 29.0 | 0.00 | 0.00 | 0.00 | 85 | 1005.1 |
| 20260505092209 | 21 | 208 | 16.1 | 22.5 | 0.00 | 0.00 | 0.00 | 85 | 1005.3 |
| 20260505091706 | 21 | 198 | 16.1 | 27.4 | 0.00 | 0.00 | 0.00 | 85 | 1005.4 |
| 20260505091204 | 21 | 204 | 16.1 | 22.5 | 0.00 | 0.00 | 0.00 | 86 | 1005.4 |
| 20260505090701 | 21 | 204 | 12.9 | 24.1 | 0.00 | 0.00 | 0.00 | 86 | 1005.4 |
| 20260505090159 | 21 | 200 | 17.7 | 25.7 | 0.00 | 0.00 | 0.00 | 86 | 1005.3 |
| 20260505085656 | 21 | 208 | 8.0 | 20.9 | 0.00 | 0.00 | 0.00 | 87 | 1005.4 |
| 20260505085154 | 21 | 219 | 17.7 | 19.3 | 0.00 | 0.00 | 0.00 | 87 | 1005.3 |
| 20260505084651 | 21 | 197 | 12.9 | 27.4 | 0.00 | 0.00 | 0.00 | 87 | 1005.2 |
| 20260505084150 | 21 | 203 | 11.3 | 25.7 | 0.00 | 0.00 | 0.00 | 87 | 1005.2 |
| 20260505083647 | 21 | 200 | 11.3 | 20.9 | 0.00 | 0.00 | 0.00 | 87 | 1005.4 |
| 20260505083143 | 21 | 206 | 22.5 | 33.8 | 0.00 | 0.00 | 0.00 | 86 | 1005.2 |
| 20260505082639 | 21 | 196 | 16.1 | 25.7 | 0.00 | 0.00 | 0.00 | 86 | 1005.2 |
| 20260505082137 | 21 | 196 | 12.9 | 30.6 | 0.00 | 0.00 | 0.00 | 86 | 1005.5 |
| 20260505081632 | 21 | 199 | 16.1 | 27.4 | 0.00 | 0.00 | 0.00 | 86 | 1005.4 |
| 20260505081130 | 21 | 182 | 9.7 | 25.7 | 0.00 | 0.00 | 0.00 | 86 | 1005.6 |
| 20260505080627 | 21 | 204 | 9.7 | 29.0 | 0.00 | 0.00 | 0.00 | 86 | 1005.5 |
| 20260505080123 | 21 | 195 | 12.9 | 33.8 | 0.00 | 0.00 | 0.00 | 86 | 1005.5 |
| 20260505075619 | 21 | 134 | 3.2 | 22.5 | 0.00 | 0.00 | 0.00 | 86 | 1005.7 |
| 20260505075116 | 21 | 203 | 14.5 | 27.4 | 0.00 | 0.00 | 0.00 | 85 | 1005.8 |
| 20260505074613 | 21 | 177 | 8.0 | 22.5 | 0.00 | 0.00 | 0.00 | 85 | 1005.8 |
| 20260505074110 | 21 | 176 | 3.2 | 24.1 | 0.00 | 0.00 | 0.00 | 85 | 1005.9 |
| 20260505073608 | 21 | 192 | 22.5 | 29.0 | 0.00 | 0.00 | 0.00 | 85 | 1005.8 |
| 20260505073106 | 21 | 176 | 14.5 | 20.9 | 0.00 | 0.00 | 0.00 | 85 | 1005.8 |
| 20260505072601 | 21 | 183 | 8.0 | 22.5 | 0.00 | 0.00 | 0.00 | 84 | 1005.9 |
| 20260505072058 | 21 | 190 | 9.7 | 29.0 | 0.00 | 0.00 | 0.00 | 84 | 1006.1 |
| 20260505071553 | 22 | 180 | 9.7 | 27.4 | 0.00 | 0.00 | 0.00 | 83 | 1006.2 |
| 20260505071052 | 22 | 185 | 6.4 | 20.9 | 0.00 | 0.00 | 0.00 | 83 | 1006.4 |
| 20260505070549 | 22 | 184 | 25.7 | 25.7 | 0.00 | 0.00 | 0.00 | 83 | 1006.3 |
| 20260505070044 | 22 | 196 | 6.4 | 20.9 | 0.00 | 0.00 | 0.00 | 83 | 1006.4 |
| 20260505065540 | 22 | 203 | 16.1 | 29.0 | 0.00 | 0.00 | 0.00 | 82 | 1006.3 |
| 20260505065038 | 22 | 170 | 9.7 | 20.9 | 0.00 | 0.00 | 0.00 | 82 | 1006.4 |
| 20260505064534 | 22 | 174 | 4.8 | 20.9 | 0.00 | 0.00 | 0.00 | 82 | 1006.4 |
| 20260505064033 | 22 | 177 | 4.8 | 25.7 | 0.00 | 0.00 | 0.00 | 81 | 1006.6 |
| 20260505063530 | 22 | 191 | 17.7 | 27.4 | 0.00 | 0.00 | 0.00 | 81 | 1006.7 |
| 20260505063026 | 22 | 167 | 14.5 | 19.3 | 0.00 | 0.00 | 0.00 | 81 | 1006.6 |
| 20260505062522 | 22 | 181 | 9.7 | 30.6 | 0.00 | 0.00 | 0.00 | 80 | 1006.8 |
| 20260505062020 | 22 | 178 | 9.7 | 24.1 | 0.00 | 0.00 | 0.00 | 80 | 1006.8 |
| 20260505061517 | 22 | 198 | 14.5 | 29.0 | 0.00 | 0.00 | 0.00 | 79 | 1007.0 |
| 20260505061015 | 22 | 168 | 17.7 | 22.5 | 0.00 | 0.00 | 0.00 | 79 | 1006.9 |
| 20260505060512 | 22 | 158 | 8.0 | 32.2 | 0.00 | 0.00 | 0.00 | 79 | 1006.8 |
| 20260505060008 | 22 | 191 | 20.9 | 30.6 | 0.00 | 0.00 | 0.00 | 78 | 1006.8 |
| 20260505055504 | 22 | 194 | 9.7 | 24.1 | 0.00 | 0.00 | 0.00 | 78 | 1006.9 |
| 20260505055001 | 22 | 183 | 8.0 | 27.4 | 0.00 | 0.00 | 0.00 | 77 | 1006.8 |
| 20260505054458 | 22 | 164 | 9.7 | 17.7 | 0.00 | 0.00 | 0.00 | 77 | 1006.8 |
| 20260505053956 | 22 | 185 | 4.8 | 16.1 | 0.00 | 0.00 | 0.00 | 77 | 1006.7 |
| 20260505053453 | 22 | 186 | 11.3 | 16.1 | 0.00 | 0.00 | 0.00 | 76 | 1006.7 |
| 20260505052949 | 22 | 139 | 3.2 | 14.5 | 0.00 | 0.00 | 0.00 | 76 | 1006.7 |
| 20260505052447 | 23 | 181 | 12.9 | 17.7 | 0.00 | 0.00 | 0.00 | 75 | 1006.9 |
| 20260505051944 | 23 | 162 | 9.7 | 27.4 | 0.00 | 0.00 | 0.00 | 75 | 1007.1 |
| 20260505051441 | 23 | 190 | 11.3 | 22.5 | 0.00 | 0.00 | 0.00 | 74 | 1007.2 |
| 20260505050939 | 23 | 211 | 9.7 | 17.7 | 0.00 | 0.00 | 0.00 | 74 | 1007.1 |
| 20260505050437 | 23 | 195 | 9.7 | 25.7 | 0.00 | 0.00 | 0.00 | 73 | 1007.2 |
| 20260505041405 | 23 | 181 | 9.7 | 32.2 | 0.00 | 0.00 | 0.00 | 72 | 1007.2 |
| 20260505040902 | 23 | 199 | 11.3 | 22.5 | 0.00 | 0.00 | 0.00 | 73 | 1007.3 |
| 20260505040359 | 23 | 156 | 6.4 | 22.5 | 0.00 | 0.00 | 0.00 | 73 | 1007.2 |
| 20260505035856 | 23 | 177 | 11.3 | 19.3 | 0.00 | 0.00 | 0.00 | 72 | 1007.3 |
| 20260505035352 | 23 | 200 | 9.7 | 9.7 | 0.00 | 0.00 | 0.00 | 73 | 1007.1 |
| 20260505034849 | 23 | 212 | 8.0 | 17.7 | 0.00 | 0.00 | 0.00 | 72 | 1007.4 |
| 20260505034345 | 23 | 149 | 4.8 | 12.9 | 0.00 | 0.00 | 0.00 | 73 | 1007.1 |
| 20260505033843 | 23 | 207 | 14.5 | 17.7 | 0.00 | 0.00 | 0.00 | 73 | 1007.0 |
| 20260505033339 | 23 | 170 | 4.8 | 19.3 | 0.00 | 0.00 | 0.00 | 72 | 1007.0 |
| 20260505032838 | 23 | 199 | 11.3 | 12.9 | 0.00 | 0.00 | 0.00 | 72 | 1006.9 |
| 20260505032334 | 23 | 199 | 12.9 | 17.7 | 0.00 | 0.00 | 0.00 | 72 | 1007.0 |
| 20260505031831 | 23 | 165 | 4.8 | 24.1 | 0.00 | 0.00 | 0.00 | 72 | 1007.0 |
| 20260505031327 | 23 | 187 | 9.7 | 19.3 | 0.00 | 0.00 | 0.00 | 72 | 1007.2 |
| 20260505030825 | 23 | 194 | 11.3 | 16.1 | 0.00 | 0.00 | 0.00 | 72 | 1007.1 |
| 20260505030321 | 23 | 180 | 11.3 | 25.7 | 0.00 | 0.00 | 0.00 | 72 | 1007.4 |
| 20260505025816 | 23 | 168 | 4.8 | 9.7 | 0.00 | 0.00 | 0.00 | 72 | 1007.2 |
| 20260505025314 | 23 | 182 | 8.0 | 17.7 | 0.00 | 0.00 | 0.00 | 72 | 1007.5 |
| 20260505024812 | 23 | 192 | 11.3 | 19.3 | 0.00 | 0.00 | 0.00 | 72 | 1007.3 |
| 20260505024309 | 23 | 153 | 8.0 | 16.1 | 0.00 | 0.00 | 0.00 | 72 | 1007.2 |
| 20260505023807 | 23 | 191 | 9.7 | 20.9 | 0.00 | 0.00 | 0.00 | 72 | 1007.1 |
| 20260505023303 | 23 | 167 | 6.4 | 16.1 | 0.00 | 0.00 | 0.00 | 72 | 1007.2 |
| 20260505022801 | 23 | 174 | 4.8 | 19.3 | 0.00 | 0.00 | 0.00 | 72 | 1007.1 |
| 20260505022258 | 23 | 140 | 3.2 | 20.9 | 0.00 | 0.00 | 0.00 | 72 | 1007.0 |
| 20260505021755 | 23 | 159 | 3.2 | 20.9 | 0.00 | 0.00 | 0.00 | 71 | 1007.1 |
| 20260505021251 | 23 | 150 | 3.2 | 16.1 | 0.00 | 0.00 | 0.00 | 71 | 1007.0 |
| 20260505020748 | 23 | 192 | 12.9 | 20.9 | 0.00 | 0.00 | 0.00 | 71 | 1007.0 |
| 20260505020242 | 23 | 163 | 4.8 | 17.7 | 0.00 | 0.00 | 0.00 | 71 | 1007.1 |
| 20260505015740 | 23 | 194 | 4.8 | 14.5 | 0.00 | 0.00 | 0.00 | 70 | 1007.0 |
| 20260505015237 | 23 | 163 | 4.8 | 20.9 | 0.00 | 0.00 | 0.00 | 70 | 1006.8 |
| 20260505014734 | 24 | 148 | 3.2 | 16.1 | 0.00 | 0.00 | 0.00 | 70 | 1006.9 |
| 20260505014231 | 24 | 139 | 8.0 | 11.3 | 0.00 | 0.00 | 0.00 | 69 | 1007.1 |
| 20260505013728 | 24 | 162 | 6.4 | 19.3 | 0.00 | 0.00 | 0.00 | 69 | 1007.1 |
| 20260505013225 | 24 | 111 | 4.8 | 11.3 | 0.00 | 0.00 | 0.00 | 69 | 1007.0 |
| 20260505012723 | 24 | 186 | 6.4 | 14.5 | 0.00 | 0.00 | 0.00 | 69 | 1006.9 |
| 20260505012220 | 24 | 166 | 3.2 | 16.1 | 0.00 | 0.00 | 0.00 | 68 | 1006.9 |
| 20260505011716 | 24 | 143 | 4.8 | 9.7 | 0.00 | 0.00 | 0.00 | 68 | 1007.2 |
| 20260505011214 | 25 | 156 | 4.8 | 14.5 | 0.00 | 0.00 | 0.00 | 68 | 1007.0 |
| 20260505010709 | 25 | 152 | 4.8 | 12.9 | 0.00 | 0.00 | 0.00 | 67 | 1006.9 |
| 20260505010206 | 25 | 167 | 9.7 | 19.3 | 0.00 | 0.00 | 0.00 | 67 | 1006.8 |
| 20260505005702 | 25 | 173 | 8.0 | 19.3 | 0.00 | 0.00 | 0.00 | 66 | 1007.0 |
| 20260505005159 | 25 | 144 | 4.8 | 16.1 | 0.00 | 0.00 | 0.00 | 67 | 1007.1 |
| 20260505004656 | 25 | 199 | 17.7 | 24.1 | 0.00 | 0.00 | 0.00 | 66 | 1007.1 |
| 20260505004152 | 25 | 174 | 9.7 | 12.9 | 0.00 | 0.00 | 0.00 | 66 | 1007.0 |
| 20260505003649 | 25 | 156 | 3.2 | 22.5 | 0.00 | 0.00 | 0.00 | 66 | 1007.3 |
| 20260505003148 | 25 | 187 | 12.9 | 22.5 | 0.00 | 0.00 | 0.00 | 66 | 1007.2 |
| 20260505002644 | 25 | 173 | 6.4 | 22.5 | 0.00 | 0.00 | 0.00 | 66 | 1007.1 |